This demonstration page uses our WeatherBlox Daily Observations layout. Learn more.

Left ArrowRight Arrow

44.89941, -97.11507

Hourly Observations for November 27, 2020

Temp ( °F °C ) Dew Point ( °F °C ) Humidity (%) Winds ( mph kmh ) Pressure ( in mb ) Visibility ( mi km ) Precip ( " mm )
12:53 am 00:53 Clear 27 -2.8 22 -5.6 81 81 WNW 8 13 30.11 1020 10 16 0.00 0.00
1:53 am 01:53 Clear 27 -2.8 21 -6.1 78 78 WNW 8 13 30.12 1020 10 16 0.00 0.00
2:53 am 02:53 Clear 26 -3.3 20 -6.7 78 78 W 8 13 30.14 1021 10 16 0.00 0.00
3:53 am 03:53 Clear 24 -4.4 19 -7.2 81 81 WNW 7 11 30.16 1021 10 16 0.00 0.00
4:53 am 04:53 Clear 22 -5.6 19 -7.2 89 89 W 7 11 30.18 1022 10 16 0.00 0.00
5:53 am 05:53 Clear 19 -7.2 16 -8.9 88 88 WSW 8 13 30.19 1022 10 16 0.00 0.00
6:53 am 06:53 Clear 16 -8.9 15 -9.4 96 96 WSW 7 11 30.21 1023 10 16 0.00 0.00
7:53 am 07:53 Sunny 18 -7.8 15 -9.4 88 88 SW 3 6 30.21 1023 10 16 0.00 0.00
8:53 am 08:53 Sunny 22 -5.6 19 -7.2 89 89 SW 8 13 30.21 1023 10 16 0.00 0.00
9:53 am 09:53 Sunny 28 -2.2 23 -5 81 81 WSW 8 13 30.20 1023 10 16 0.00 0.00
10:53 am 10:53 Sunny 32 0 23 -5 69 69 WSW 13 20 30.19 1022 10 16 0.00 0.00
11:53 am 11:53 Sunny 35 1.7 23 -5 61 61 WSW 18 30 30.16 1022 10 16 0.00 0.00
12:53 pm 12:53 Sunny 38 3.3 26 -3.3 62 62 SW 16 26 30.13 1020 10 16 0.00 0.00
1:53 pm 13:53 Sunny 39 3.9 26 -3.3 60 60 SW 17 28 30.12 1020 10 16 0.00 0.00
2:53 pm 14:53 Sunny 41 5 25 -3.9 53 53 SW 17 28 30.10 1019 10 16 0.00 0.00
3:53 pm 15:53 Sunny 40 4.4 25 -3.9 55 55 SW 10 17 30.11 1020 10 16 0.00 0.00
4:53 pm 16:53 Clear 36 2.2 25 -3.9 64 64 SSW 9 15 30.11 1020 10 16 0.00 0.00
5:53 pm 17:53 Clear 32 0 25 -3.9 75 75 SSW 10 17 30.11 1020 10 16 0.00 0.00
6:53 pm 18:53 Clear 30 -1.1 25 -3.9 82 82 SSW 8 13 30.11 1020 10 16 0.00 0.00
7:53 pm 19:53 Clear 32 0 25 -3.9 75 75 SSW 8 13 30.09 1019 10 16 0.00 0.00
8:53 pm 20:53 Clear 31 -0.6 23 -5 72 72 S 7 11 30.08 1019 10 16 0.00 0.00
9:53 pm 21:53 Clear 29 -1.7 23 -5 78 78 S 7 11 30.06 1018 10 16 0.00 0.00
10:53 pm 22:53 Clear 31 -0.6 23 -5 72 72 S 10 17 30.05 1018 10 16 0.00 0.00
11:53 pm 23:53 Clear 30 -1.1 23 -5 75 75 SSW 9 15 30.04 1017 10 16 0.00 0.00

Powered by AerisWeather